GONETS-M 21 (47228 NORAD) Tracking and Keplerian Element Data

This shows tracking and keplerian element data for the satellite.

Feedback or suggestion? Click here.




ElementValue
Catalog47228
NameGONETS-M 21
Epoch Orbit1665
Epoch Day106.1543896
Epoch Year2021
RAAN35.8441
Inclination82.5
Eccentricity0.0015159
Argument of Perigee358.9541
Mean Anonmoly1.1499
Mean Motion12.42861272
Decay Rate2.4E-07
L11 47228U 20091B 21106.15438960 .00000024 00000-0 10000-3 0 9991
L22 47228 82.5000 35.8441 0015159 358.9541 1.1499 12.42861272 16658

Live tracking and technical data element details for GONETS-M 21 (NORAD 47228). GONETS-M 21 can be tracked NOW for your location showing map with azimuth and elevation plus other details from your city location.

Track the satellite on the map from your city or location and see movement details for azimuth, elevation, latitude, longitude, range, height, and movement on the map or in text.







IsCatalogInMostPopularTable: catalog: 47228, numindb: 40
Update: records affected: 1



GetName: 47228 GONETS-M 21

Hit Count: updated at: Fri, 16 Apr 2021 10:40:18 GMT